Flag for Brazil Weather past 2 weeks in São Paulo, São Paulo, Brazil

Now
68 °F

Mostly cloudy.


Feels Like: 68 °F
Forecast: 66 / 81 °F
Wind: 10 mph from South

Location: Sao Paulo Airport

Current Time: Sep 19, 2014 at 3:04:43 PM

Latest Report: Sep 19, 2014 at 2:00 PM


Visibility: 5 mi

Pressure: 30.01 "Hg

Humidity: 78%

Dew point: 61 °F

Location of São PauloLocation

Historic Weather in São Paulo — Graph

°F

São Paulo temperature yesterday

Maximum temperature yesterday: 75 °F (at 2:00 PM)
Minimum temperature yesterday: 61 °F (at 12:00 AM)
Average temperature yesterday: 66 °F

Past Weeks' High & Low Weather Summary

 TemperatureHumidityPressure
High90 °F (Sep 11, 1:00 PM)88% (Sep 5, 2:00 AM)30.39 "Hg (Sep 5, 2:00 AM)
Low54 °F (Sep 6, 7:00 AM)15% (Sep 9, 2:00 PM)29.98 "Hg (Sep 10, 4:00 PM)
Average68 °F59%30.15 "Hg
* Reported Sep 4 2:00 PM — Sep 19 2:00 PM, São Paulo, Weather by CustomWeather, © 2014

Note: Actual official high and low records may vary slightly from our data, if they occured in-between our weather recording intervals... More about our weather records

Advertising

São Paulo weather history for previous 24 hours

 ConditionsComfort  
Time TempWeatherWind HumidityBarometerVisibility
2:00 PM
Sep 19
68 °FMostly cloudy.10 mph78%30.01 "Hg5 mi
1:00 PM70 °FLight rain. Mostly cloudy.8 mph73%30.01 "HgN/A
12:00 PM68 °FPartly sunny.12 mph83%30.04 "HgN/A
11:00 AM70 °FLight rain. Overcast.10 mph73%30.09 "Hg4 mi
10:00 AM68 °FPartly sunny.8 mph78%30.01 "HgN/A
9:00 AM66 °FLight rain. Partly sunny.9 mph83%30.04 "HgN/A
8:00 AM64 °FLight rain. Fog.9 mph83%30.07 "Hg3 mi
7:00 AM64 °FPartly sunny.9 mph83%30.04 "HgN/A
6:00 AM63 °FBroken clouds.8 mph88%30.04 "HgN/A
5:00 AM63 °FFog.9 mph88%30.07 "Hg3 mi
4:00 AM63 °FFog.12 mph88%29.98 "Hg2 mi
3:00 AM63 °FFog.12 mph88%30.01 "Hg2 mi
2:00 AM64 °FFog.6 mph78%30.01 "Hg3 mi
1:00 AM63 °FFog.8 mph83%30.01 "Hg2 mi
12:00 AM64 °FFog.8 mph78%30.04 "Hg2 mi
11:00 PM
Sep 18
64 °FPassing clouds.7 mph78%30.07 "Hg6 mi
10:00 PM64 °FMostly cloudy.10 mph78%30.07 "Hg4 mi
9:00 PM64 °FFog.9 mph78%30.09 "Hg3 mi
8:00 PM64 °FFog.9 mph83%30.09 "Hg3 mi
7:00 PM64 °FPartly cloudy.13 mph78%30.07 "Hg6 mi
6:00 PM66 °FClear.12 mph78%30.07 "Hg5 mi
5:00 PM70 °FClear.10 mph69%30.04 "Hg4 mi
4:00 PM73 °FClear.10 mph57%30.04 "Hg6 mi
3:00 PM75 °FSunny.9 mph54%30.04 "Hg10 mi
Weather by CustomWeather, © 2014

See weather overviewHow to use our weather pages